GW6020 Weather Reports


time (UTC)temp
C
wind
direction
speed
KPH
gust
KPH
rain 1hr
cm
rain 24hr
cm
rain mn
cm
humidity
%
barometer
mb
20260510214519 17 271 0.0 3.2 0.00 0.53 0.00 73 1013.5
20260510214010 17 23 0.0 3.2 0.00 0.56 0.00 73 1013.5
20260510213510 17 302 0.0 3.2 0.00 0.56 0.00 72 1013.4
20260510213024 17 60 0.0 4.8 0.00 0.58 0.00 71 1013.5
20260510212507 17 355 0.0 4.8 0.00 0.58 0.00 72 1013.3
20260510212007 17 75 1.6 4.8 0.00 0.61 0.00 72 1013.2
20260510211531 17 7 1.6 4.8 0.00 0.66 0.00 70 1013.3
20260510211009 18 52 1.6 4.8 0.00 0.69 0.00 68 1013.2
20260510210505 18 359 0.0 8.0 0.00 0.71 0.00 66 1013.1
20260510210012 19 69 1.6 9.7 0.00 0.71 0.00 65 1013.0
20260510205503 20 304 3.2 9.7 0.00 0.71 0.00 64 1012.9
20260510205003 20 360 1.6 14.5 0.00 0.71 0.00 66 1012.9
20260510204518 20 281 3.2 14.5 0.00 0.74 0.00 65 1012.8
20260510204004 20 257 1.6 12.9 0.00 0.74 0.00 65 1012.8
20260510203506 20 224 3.2 8.0 0.00 0.74 0.00 63 1012.8
20260510203023 20 264 3.2 12.9 0.00 0.74 0.00 63 1012.7
20260510202508 20 174 3.2 12.9 0.00 0.74 0.00 63 1012.8
20260510202009 20 41 3.2 9.7 0.00 0.74 0.00 65 1012.7
20260510201522 20 311 3.2 8.0 0.00 0.76 0.00 67 1012.7
20260510201010 20 77 0.0 3.2 0.00 0.76 0.00 68 1012.7
20260510200509 20 204 0.0 11.3 0.00 0.79 0.00 67 1012.8
20260510200026 20 189 3.2 11.3 0.00 0.81 0.00 66 1012.7
20260510195504 20 200 3.2 8.0 0.00 0.81 0.00 66 1012.8
20260510195005 21 241 3.2 6.4 0.00 0.84 0.00 68 1012.8
20260510194512 21 129 1.6 8.0 0.00 0.86 0.00 71 1012.8
20260510194004 20 247 3.2 9.7 0.00 0.86 0.00 71 1012.8
20260510193504 20 186 1.6 9.7 0.00 0.89 0.00 72 1012.9
20260510193018 19 206 1.6 8.0 0.00 0.91 0.00 71 1012.9
20260510192508 19 240 3.2 8.0 0.00 0.94 0.00 70 1012.9
20260510192009 19 188 3.2 8.0 0.00 1.04 0.00 68 1012.9
20260510191527 19 224 0.0 9.7 0.00 1.09 0.00 69 1013.0
20260510191008 19 293 3.2 9.7 0.00 1.12 0.00 68 1013.0
20260510190511 19 221 1.6 6.4 0.00 1.17 0.00 68 1013.0
20260510190040 18 226 3.2 8.0 0.00 1.27 0.00 67 1013.1
20260510185512 18 247 3.2 8.0 0.00 1.32 0.00 68 1013.1
20260510185008 19 216 3.2 8.0 0.00 1.47 0.00 67 1013.0
20260510184509 19 224 0.0 11.3 0.00 1.65 0.00 69 1013.0
20260510184008 19 290 3.2 11.3 0.00 2.08 0.00 67 1013.0
20260510183507 19 264 1.6 4.8 0.00 2.44 0.00 67 1012.9
20260510183020 19 278 1.6 4.8 0.00 2.64 0.00 68 1013.0
20260510182510 19 229 1.6 9.7 0.00 2.64 0.00 68 1013.0
20260510182009 19 71 1.6 9.7 0.00 2.64 0.00 68 1013.0
20260510181520 20 236 1.6 6.4 0.00 2.64 0.00 67 1013.0
20260510181009 20 288 1.6 12.9 0.00 2.64 0.00 65 1013.0
20260510180508 20 337 3.2 12.9 0.00 2.64 0.00 65 1012.9
20260510180028 20 200 4.8 9.7 0.00 2.64 0.00 68 1013.0
20260510175509 20 305 4.8 8.0 0.00 2.64 0.00 70 1013.0
20260510175014 20 258 4.8 8.0 0.00 2.64 0.00 71 1012.9
20260510174527 20 112 1.6 9.7 0.00 2.64 0.00 73 1013.0
20260510174012 19 245 3.2 9.7 0.00 2.64 0.00 71 1013.1
20260510173505 19 39 1.6 12.9 0.00 2.64 0.00 73 1013.2
20260510173015 18 275 3.2 12.9 0.00 2.64 0.00 75 1013.2
20260510172506 18 277 3.2 12.9 0.00 2.64 0.00 76 1013.1
20260510172007 18 250 3.2 6.4 0.00 2.64 0.00 75 1013.1
20260510171518 18 214 1.6 12.9 0.00 2.64 0.00 73 1013.0
20260510171006 18 266 1.6 12.9 0.00 2.64 0.00 73 1012.9
20260510170507 18 172 0.0 9.7 0.00 2.64 0.00 76 1012.8
20260510170023 18 115 1.6 9.7 0.00 2.64 0.00 77 1012.9
20260510165514 18 70 1.6 6.4 0.00 2.64 0.00 76 1013.0
20260510165008 18 226 1.6 9.7 0.00 2.64 0.00 78 1013.0
20260510164531 18 243 0.0 11.3 0.00 2.64 0.00 80 1013.4
20260510164007 17 212 4.8 11.3 0.00 2.64 0.00 81 1013.4
20260510163510 17 301 3.2 9.7 0.00 2.64 0.00 81 1013.5
20260510163030 17 134 1.6 4.8 0.00 2.64 0.00 84 1013.4
20260510162512 16 168 1.6 9.7 0.00 2.64 0.00 83 1013.2
20260510162007 16 256 3.2 9.7 0.00 2.64 0.00 81 1013.4
20260510161518 17 243 4.8 9.7 0.00 2.64 0.00 83 1013.5
20260510161011 16 190 0.0 3.2 0.00 2.64 0.00 84 1013.4
20260510160506 16 215 0.0 4.8 0.00 2.64 0.00 86 1013.4
20260510160020 16 109 1.6 12.9 0.00 2.64 0.00 86 1013.4
20260510155513 16 246 6.4 12.9 0.00 2.64 0.00 83 1013.4
20260510155008 16 207 3.2 11.3 0.00 2.64 0.00 84 1013.3
20260510154540 16 277 1.6 9.7 0.00 2.64 0.00 85 1013.3
20260510154011 16 207 1.6 4.8 0.00 2.64 0.00 89 1013.5
20260510153508 15 73 1.6 11.3 0.00 2.64 0.00 89 1013.5
20260510153042 15 242 4.8 11.3 0.00 2.64 0.00 87 1013.7
20260510152510 15 210 0.0 9.7 0.00 2.64 0.00 89 1013.7
20260510152011 15 197 3.2 9.7 0.00 2.64 0.00 88 1013.8
20260510151529 14 225 1.6 9.7 0.00 2.64 0.00 88 1013.7
20260510151004 14 229 4.8 9.7 0.00 2.64 0.00 88 1013.7
20260510150507 14 245 1.6 9.7 0.00 2.64 0.00 88 1013.7
20260510150022 15 225 1.6 8.0 0.00 2.64 0.00 89 1013.7
20260510145508 14 245 1.6 6.4 0.00 2.64 0.00 89 1013.8
20260510145007 14 210 0.0 6.4 0.00 2.64 0.00 89 1013.8
20260510144542 14 267 3.2 6.4 0.00 2.64 0.00 88 1013.7
20260510144007 14 115 0.0 3.2 0.00 2.64 0.00 89 1013.5
20260510143508 14 86 0.0 4.8 0.00 2.64 0.00 92 1013.5
20260510143028 13 221 0.0 6.4 0.00 2.64 0.00 90 1013.4
20260510142516 13 360 1.6 6.4 0.00 2.64 0.00 90 1013.5
20260510142009 13 295 0.0 4.8 0.00 2.64 0.00 92 1013.5
20260510141526 13 360 0.0 4.8 0.00 2.64 0.00 93 1013.5
20260510141011 13 139 0.0 4.8 0.00 2.64 0.00 93 1013.4
20260510140509 12 285 0.0 4.8 0.00 2.64 0.00 93 1013.5
20260510140018 12 233 1.6 4.8 0.00 2.64 0.00 95 1013.5
20260510135507 12 276 0.0 3.2 0.00 2.64 0.00 95 1013.5
20260510135008 12 195 0.0 3.2 0.00 2.64 0.00 96 1013.4
20260510134522 12 122 0.0 3.2 0.00 2.64 0.00 96 1013.3
20260510134009 12 122 0.0 3.2 0.00 2.64 0.00 95 1013.3
20260510133507 12 130 0.0 0.0 0.00 2.64 0.00 95 1013.2
20260510133029 12 191 0.0 3.2 0.00 2.64 0.00 96 1013.2
20260510132510 12 150 0.0 1.6 0.00 2.64 0.00 96 1013.1
20260510132013 12 216 0.0 0.0 0.00 2.64 0.00 96 1013.0
20260510131528 11 122 0.0 0.0 0.00 2.64 0.00 96 1013.0
20260510131008 11 106 0.0 0.0 0.00 2.64 0.00 96 1013.0
20260510130504 11 224 0.0 0.0 0.00 2.64 0.00 96 1013.1
20260510130014 11 224 0.0 0.0 0.00 2.64 0.00 96 1013.1
20260510125508 11 224 0.0 0.0 0.00 2.64 0.00 96 1013.2
20260510125008 11 238 0.0 0.0 0.00 2.64 0.00 96 1013.1
20260510124521 11 228 0.0 0.0 0.00 2.64 0.00 96 1013.1
20260510124012 11 243 0.0 0.0 0.00 2.64 0.00 96 1013.0
20260510123510 11 253 0.0 3.2 0.00 2.64 0.00 96 1012.9
20260510123019 11 221 0.0 3.2 0.00 2.64 0.00 96 1013.0
20260510122504 11 210 0.0 4.8 0.00 2.64 0.00 96 1012.9
20260510122007 11 211 0.0 4.8 0.00 2.64 0.00 96 1012.8
20260510121519 11 172 1.6 4.8 0.00 2.64 0.00 96 1012.8
20260510121003 11 275 0.0 4.8 0.00 2.64 0.00 96 1012.8
20260510120505 11 205 1.6 3.2 0.00 2.64 0.00 96 1012.8
20260510120015 10 198 0.0 4.8 0.00 2.64 0.00 96 1012.7
20260510115506 10 210 1.6 4.8 0.00 2.64 0.00 96 1012.7
20260510115007 10 227 0.0 3.2 0.00 2.64 0.00 96 1012.6
20260510114516 10 257 0.0 3.2 0.00 2.64 0.00 96 1012.5
20260510114009 10 257 0.0 3.2 0.00 2.64 0.00 96 1012.5
20260510113508 10 257 0.0 3.2 0.00 2.64 0.00 96 1012.4
20260510113022 10 257 0.0 4.8 0.00 2.64 0.00 96 1012.3
20260510112505 10 234 1.6 4.8 0.00 2.64 0.00 96 1012.2
20260510112009 10 219 0.0 0.0 0.00 2.64 0.00 96 1012.1
20260510111522 10 215 0.0 0.0 0.00 2.64 0.00 96 1012.2
20260510111013 10 153 0.0 0.0 0.00 2.64 0.00 96 1012.2
20260510110507 10 155 0.0 0.0 0.00 2.64 0.00 96 1012.1
20260510110022 10 155 0.0 0.0 0.00 2.64 0.00 96 1012.2
20260510105508 10 155 0.0 0.0 0.00 2.64 0.00 96 1012.4
20260510105005 10 155 0.0 0.0 0.00 2.64 0.00 96 1012.2
20260510104517 10 155 0.0 0.0 0.00 2.64 0.00 96 1012.2
20260510104004 10 155 0.0 3.2 0.00 2.64 0.00 96 1012.1
20260510103507 10 227 0.0 3.2 0.00 2.64 0.00 96 1012.0
20260510103018 10 155 0.0 4.8 0.00 2.64 0.00 96 1011.9
20260510102507 10 139 0.0 4.8 0.00 2.64 0.00 96 1011.8
20260510102010 10 220 0.0 3.2 0.00 2.64 0.00 96 1011.8
20260510101521 10 174 0.0 4.8 0.00 2.64 0.00 96 1011.8
20260510101014 10 219 1.6 4.8 0.00 2.64 0.00 96 1011.8
20260510100505 9 219 0.0 3.2 0.00 2.64 0.00 96 1011.8
20260510100008 9 238 0.0 3.2 0.00 2.64 0.00 96 1011.8
20260510095505 9 145 0.0 3.2 0.00 2.64 0.00 96 1011.9
20260510095007 9 74 0.0 3.2 0.00 2.64 0.00 96 1011.7
20260510094514 9 122 0.0 3.2 0.00 2.64 0.00 96 1011.7
20260510094003 9 126 0.0 0.0 0.00 2.64 0.00 96 1011.9
20260510093506 9 121 0.0 0.0 0.00 2.64 0.00 96 1012.0
20260510093018 9 161 0.0 0.0 0.00 2.64 0.00 96 1012.1
20260510092507 9 180 0.0 0.0 0.00 2.64 0.00 95 1012.1
20260510092008 9 180 0.0 0.0 0.00 2.64 0.00 95 1012.2
20260510091527 9 155 0.0 0.0 0.00 2.64 0.00 95 1012.1
20260510091009 9 206 0.0 0.0 0.00 2.64 0.00 95 1012.1
20260510090510 9 206 0.0 0.0 0.00 2.64 0.00 96 1012.3
20260510090024 10 207 0.0 0.0 0.00 2.64 0.00 96 1012.2
20260510085505 10 216 0.0 0.0 0.00 2.64 0.00 96 1012.3
20260510085004 10 216 0.0 0.0 0.00 2.64 0.00 96 1012.2
20260510084525 10 216 0.0 0.0 0.00 2.64 0.00 96 1012.3
20260510084005 10 238 0.0 0.0 0.00 2.64 0.00 96 1012.3
20260510083505 10 238 0.0 0.0 0.00 2.64 0.00 96 1012.4
20260510083016 10 238 0.0 0.0 0.00 2.64 0.00 96 1012.5
20260510082507 10 2 0.0 0.0 0.00 2.64 0.00 96 1012.5
20260510082008 10 2 0.0 0.0 0.00 2.64 0.00 96 1012.4
20260510081529 10 281 0.0 3.2 0.00 2.64 0.00 96 1012.4
20260510081008 10 281 0.0 3.2 0.00 2.64 0.00 96 1012.4
20260510080508 10 3 0.0 0.0 0.00 2.64 0.00 96 1012.2
20260510080025 10 4 0.0 0.0 0.00 2.64 0.00 96 1012.1
20260510075508 10 4 0.0 0.0 0.00 2.67 0.00 96 1012.1
20260510075012 10 4 0.0 0.0 0.00 2.72 0.00 96 1011.9
20260510074525 10 241 0.0 0.0 0.00 2.72 0.00 96 1011.6
20260510074004 10 269 0.0 0.0 0.00 2.72 0.00 96 1011.6
20260510073504 10 269 0.0 0.0 0.00 2.72 0.00 96 1011.6
20260510073012 10 269 0.0 4.8 0.00 2.72 0.00 96 1011.5
20260510072504 10 269 0.0 4.8 0.00 2.72 0.00 96 1011.6
20260510072005 10 271 0.0 0.0 0.00 2.72 0.00 96 1011.6
20260510071518 10 210 0.0 0.0 0.00 2.72 0.00 96 1011.6
20260510071007 10 246 0.0 0.0 0.00 2.72 0.00 96 1011.6
20260510070507 10 224 0.0 0.0 0.00 2.72 0.00 96 1011.6
20260510070024 10 224 0.0 0.0 0.00 2.72 0.00 96 1011.8
20260510065512 10 224 0.0 0.0 0.00 2.72 0.00 96 1011.8
20260510065011 10 224 0.0 0.0 0.00 2.72 0.00 96 1011.9
20260510064526 10 224 0.0 0.0 0.00 2.72 0.00 96 1011.9
20260510064010 10 224 0.0 0.0 0.00 2.72 0.00 96 1011.9
20260510063506 10 224 0.0 0.0 0.00 2.72 0.00 96 1011.9
20260510063013 10 224 0.0 0.0 0.00 2.72 0.00 96 1011.9
20260510062504 10 224 0.0 0.0 0.00 2.72 0.00 96 1011.8
20260510062007 10 224 0.0 0.0 0.00 2.72 0.00 96 1011.7
20260510061515 10 224 0.0 0.0 0.00 2.72 0.00 96 1011.7
20260510061006 10 224 0.0 0.0 0.00 2.72 0.00 96 1011.6
20260510060506 10 224 0.0 0.0 0.00 2.72 0.00 96 1011.4
20260510060034 10 224 0.0 0.0 0.00 2.72 0.00 96 1011.3
20260510055507 10 224 0.0 0.0 0.00 2.72 0.00 96 1011.3
20260510055008 10 224 0.0 0.0 0.00 2.72 0.00 96 1011.3
20260510054524 10 224 0.0 0.0 0.00 2.72 0.00 96 1011.4
20260510054008 10 224 0.0 0.0 0.00 2.72 0.00 96 1011.4
20260510053509 10 224 0.0 0.0 0.00 2.72 0.00 96 1011.5
20260510053026 10 224 0.0 0.0 0.00 2.72 0.00 96 1011.6
20260510052508 10 219 0.0 0.0 0.00 2.72 0.00 96 1011.7
20260510052009 10 262 0.0 0.0 0.00 2.72 0.00 96 1011.7
20260510051512 10 262 0.0 0.0 0.00 2.72 0.00 96 1011.7
20260510051008 10 262 0.0 0.0 0.00 2.72 0.00 96 1011.7
20260510050503 10 262 0.0 0.0 0.00 2.72 0.00 96 1011.7
20260510050020 10 262 0.0 0.0 0.00 2.72 0.00 96 1011.7
20260510045504 10 262 0.0 0.0 0.00 2.72 0.00 96 1011.7
20260510045010 10 262 0.0 0.0 0.00 2.72 0.00 95 1011.6
20260510044523 10 262 0.0 0.0 0.00 2.72 0.00 95 1011.7
20260510044008 10 226 0.0 0.0 0.00 2.72 0.00 95 1011.7
20260510043507 10 255 0.0 0.0 0.00 2.72 0.00 95 1011.6
20260510043027 10 259 0.0 0.0 0.00 2.72 0.00 95 1011.6
20260510042511 10 259 0.0 0.0 0.00 2.72 0.00 96 1011.6
20260510042011 10 269 0.0 0.0 0.00 2.72 0.00 96 1011.6
20260510041533 10 214 0.0 0.0 0.00 2.72 0.00 96 1011.6
20260510041011 10 214 0.0 0.0 0.00 2.72 0.00 96 1011.5
20260510040504 10 214 0.0 0.0 0.00 2.72 0.00 96 1011.4
20260510040017 10 214 0.0 0.0 0.00 2.72 0.00 96 1011.4
20260510035507 10 169 0.0 0.0 0.00 2.72 2.72 96 1011.3
20260510035007 10 169 0.0 0.0 0.00 2.72 2.72 96 1011.3
20260510034524 10 228 0.0 0.0 0.00 2.72 2.72 96 1011.2
20260510034009 10 196 0.0 0.0 0.00 2.72 2.72 96 1011.2
20260510033512 10 196 0.0 0.0 0.00 2.72 2.72 96 1011.4
20260510033026 10 196 0.0 0.0 0.00 2.72 2.72 96 1011.4
20260510032508 10 196 0.0 0.0 0.00 2.72 2.72 96 1011.4
20260510032009 10 196 0.0 0.0 0.00 2.72 2.72 95 1011.4
20260510031525 10 115 0.0 0.0 0.00 2.72 2.72 95 1011.4
20260510031009 10 89 0.0 0.0 0.00 2.72 2.72 95 1011.5
20260510030510 10 148 0.0 0.0 0.00 2.72 2.72 95 1011.6
20260510030035 10 129 0.0 3.2 0.00 2.72 2.72 95 1011.6
20260510025509 10 217 0.0 3.2 0.00 2.72 2.72 95 1011.7
20260510025007 10 263 0.0 1.6 0.00 2.72 2.72 95 1011.7
20260510024528 10 179 0.0 1.6 0.00 2.72 2.72 95 1011.6
20260510024007 10 191 0.0 0.0 0.00 2.72 2.72 95 1011.6
20260510023505 10 200 0.0 0.0 0.00 2.72 2.72 95 1011.6
20260510023022 10 134 0.0 0.0 0.00 2.72 2.72 95 1011.6
20260510022508 10 192 0.0 3.2 0.00 2.72 2.72 96 1011.6
20260510022012 10 196 0.0 3.2 0.00 2.72 2.72 96 1011.5
20260510021531 10 193 0.0 0.0 0.00 2.72 2.72 95 1011.5
20260510021009 10 158 0.0 0.0 0.00 2.72 2.72 95 1011.3
20260510020508 10 190 0.0 0.0 0.00 2.72 2.72 95 1011.4
20260510020028 10 172 0.0 0.0 0.00 2.72 2.72 94 1011.5
20260510015512 10 225 0.0 0.0 0.00 2.72 2.72 94 1011.4
20260510015010 10 225 0.0 0.0 0.00 2.72 2.72 94 1011.4
20260510014528 10 225 0.0 0.0 0.00 2.72 2.72 94 1011.4
20260510014005 10 225 0.0 0.0 0.00 2.72 2.72 95 1011.4
20260510013504 10 225 0.0 0.0 0.00 2.72 2.72 95 1011.3
20260510013024 10 225 0.0 0.0 0.00 2.72 2.72 95 1011.4
20260510012505 10 225 0.0 4.8 0.00 2.72 2.72 95 1011.4
20260510012010 10 225 0.0 4.8 0.00 2.72 2.72 95 1011.4
20260510011524 10 256 0.0 0.0 0.00 2.72 2.72 95 1011.3
20260510011005 10 206 0.0 1.6 0.00 2.72 2.72 95 1011.1
20260510010502 10 204 0.0 3.2 0.00 2.72 2.72 95 1011.0
20260510010008 10 243 0.0 3.2 0.00 2.72 2.72 95 1011.0
20260510005505 10 93 0.0 8.0 0.00 2.72 2.72 95 1010.9
20260510005006 10 176 0.0 8.0 0.00 2.72 2.72 95 1010.9
20260510004514 10 100 0.0 8.0 0.00 2.72 2.72 94 1010.9
20260510004005 10 106 0.0 3.2 0.00 2.72 2.72 94 1010.9
20260510003505 10 113 0.0 3.2 0.00 2.72 2.72 94 1010.8
20260510003022 10 205 0.0 3.2 0.00 2.72 2.72 94 1010.9
20260510002505 11 156 0.0 3.2 0.00 2.72 2.72 94 1010.8
20260510002012 11 235 0.0 3.2 0.03 2.72 2.72 94 1010.7
20260510001523 11 101 0.0 3.2 0.03 2.72 2.72 94 1010.6
20260510001001 11 159 0.0 3.2 0.03 2.72 2.72 94 1010.6
20260510000501 11 115 0.0 0.0 0.03 2.72 2.72 94 1010.6
20260510000007 11 139 0.0 0.0 0.03 2.72 2.72 94 1010.6
20260509235504 11 136 0.0 0.0 0.03 2.72 2.72 94 1010.8
20260509235002 11 177 0.0 0.0 0.03 2.72 2.72 95 1010.9
20260509234513 11 141 0.0 0.0 0.03 2.72 2.72 95 1011.0
20260509234005 11 142 0.0 0.0 0.05 2.72 2.72 95 1011.0
20260509233504 11 134 0.0 0.0 0.08 2.72 2.72 95 1011.0
20260509233016 11 134 0.0 0.0 0.13 2.72 2.72 94 1011.0
20260509232507 11 103 0.0 0.0 0.20 2.72 2.72 94 1011.0
20260509232008 11 103 0.0 0.0 0.23 2.67 2.67 94 1011.0
20260509231519 11 215 0.0 0.0 0.28 2.67 2.67 94 1011.0
20260509231007 11 281 0.0 0.0 0.33 2.67 2.67 94 1011.1
20260509230513 11 300 0.0 0.0 0.38 2.67 2.67 94 1011.1
20260509230024 11 300 0.0 0.0 0.43 2.67 2.67 94 1011.1
20260509225504 11 300 0.0 0.0 0.46 2.67 2.67 94 1011.1
20260509225003 11 300 0.0 0.0 0.48 2.67 2.67 1011.1
20260509224507 11 300 0.0 0.0 0.51 2.67 2.67 93 1011.2
20260509224004 11 101 0.0 0.0 0.51 2.64 2.64 93 1011.0
20260509223504 11 130 0.0 0.0 0.48 2.64 2.64 93 1011.0
20260509223016 11 81 0.0 0.0 0.46 2.59 2.59 93 1011.1
20260509222503 11 125 0.0 0.0 0.38 2.51 2.51 93 1011.4
20260509222004 11 171 0.0 0.0 0.36 2.46 2.46 93 1011.6
20260509221518 11 171 0.0 0.0 0.36 2.41 2.41 93 1011.7
20260509221007 11 158 0.0 0.0 0.33 2.36 2.36 93 1011.5
20260509220508 11 158 0.0 0.0 0.30 2.31 2.31 93 1011.5
20260509220020 11 162 0.0 0.0 0.25 2.26 2.26 93 1011.5
20260509215511 11 161 0.0 0.0 0.23 2.24 2.24 92 1011.6
20260509215007 11 174 0.0 0.0 0.23 2.21 2.21 92 1011.6